FW4614 Weather Reports


time (UTC)temp
C
wind
direction
speed
KPH
gust
KPH
rain 1hr
cm
rain 24hr
cm
rain mn
cm
humidity
%
barometer
mb
20260502210332 20 295 11.3 25.7 0.00 0.00 0.00 32 1014.8
20260502205317 20 269 8.0 20.9 0.00 0.00 0.00 31 1014.8
20260502204811 20 228 9.7 19.3 0.00 0.00 0.00 32 1014.9
20260502204303 20 274 11.3 20.9 0.00 0.00 0.00 31 1015.0
20260502203752 20 271 9.7 25.7 0.00 0.00 0.00 29 1015.0
20260502203246 20 282 9.7 27.4 0.00 0.00 0.00 28 1015.0
20260502202743 20 275 12.9 27.4 0.00 0.00 0.00 30 1015.1
20260502202231 20 252 11.3 22.5 0.00 0.00 0.00 30 1015.3
20260502201725 20 296 12.9 22.5 0.00 0.00 0.00 30 1015.3
20260502200203 20 259 9.7 22.5 0.00 0.00 0.00 31 1015.5
20260502195701 19 268 11.3 19.3 0.00 0.00 0.00 32 1015.6
20260502195146 19 319 9.7 19.3 0.00 0.00 0.00 30 1015.7
20260502194642 19 315 8.0 17.7 0.00 0.00 0.00 31 1015.8
20260502194137 20 313 6.4 17.7 0.00 0.00 0.00 32 1015.9
20260502193121 20 252 9.7 19.3 0.00 0.00 0.00 31 1016.0
20260502192105 20 298 12.9 22.5 0.00 0.00 0.00 31 1016.1
20260502191557 20 318 12.9 22.5 0.00 0.00 0.00 31 1016.0
20260502191052 20 295 11.3 24.1 0.00 0.00 0.00 31 1016.0
20260502190541 20 330 9.7 32.2 0.00 0.00 0.00 29 1016.1
20260502190034 20 266 11.3 32.2 0.00 0.00 0.00 31 1016.2
20260502185018 19 274 4.8 17.7 0.00 0.00 0.00 31 1016.2
20260502184511 19 294 6.4 22.5 0.00 0.00 0.00 33 1016.3
20260502183457 20 244 4.8 20.9 0.00 0.00 0.00 31 1016.4
20260502182954 20 280 8.0 22.5 0.00 0.00 0.00 30 1016.2
20260502182448 19 314 6.4 27.4 0.00 0.00 0.00 31 1016.3
20260502181430 20 278 4.8 25.7 0.00 0.00 0.00 29 1016.4
20260502180923 19 302 6.4 27.4 0.00 0.00 0.00 29 1016.4
20260502180415 19 283 8.0 27.4 0.00 0.00 0.00 27 1016.5
20260502170245 19 227 4.8 12.9 0.00 0.00 0.00 32 1016.9
20260502163712 18 251 9.7 25.7 0.00 0.00 0.00 33 1017.1
20260502163200 18 308 9.7 25.7 0.00 0.00 0.00 33 1017.2
20260502162655 18 6 6.4 24.1 0.00 0.00 0.00 34 1017.3
20260502162149 18 318 1.6 17.7 0.00 0.00 0.00 32 1017.4
20260502161639 18 115 3.2 14.5 0.00 0.00 0.00 34 1017.4
20260502160639 18 343 1.6 19.3 0.00 0.00 0.00 35 1017.5
20260502152131 17 40 0.0 4.8 0.00 0.00 0.00 38 1017.5
20260502151631 17 276 0.0 4.8 0.00 0.00 0.00 38 1017.5
20260502151134 17 293 0.0 1.6 0.00 0.00 0.00 39 1017.5
20260502150631 17 18 0.0 6.4 0.00 0.00 0.00 39 1017.4
20260502150131 17 56 1.6 11.3 0.00 0.00 0.00 42 1017.4
20260502140123 15 53 0.0 1.6 0.00 0.00 0.00 45 1017.1
20260502130121 12 266 0.0 9.7 0.00 0.00 0.00 60 1016.9
20260502123611 10 25 0.0 0.0 0.00 0.00 0.00 65 1017.0
20260502123112 10 22 0.0 0.0 0.00 0.00 0.00 66 1016.9
20260502122609 10 356 0.0 6.4 0.00 0.00 0.00 66 1016.8
20260502122102 10 352 0.0 6.4 0.00 0.00 0.00 66 1016.7
20260502121605 10 333 1.6 12.9 0.00 0.00 0.00 66 1016.8
20260502121102 10 21 0.0 12.9 0.00 0.00 0.00 66 1016.8
20260502120601 9 328 0.0 0.0 0.00 0.00 0.00 66 1016.8
20260502115558 9 31 0.0 3.2 0.00 0.00 0.00 67 1016.6
20260502114556 9 356 0.0 0.0 0.00 0.00 0.00 68 1016.5
20260502114054 -17 0.0 0.0 0.00 0.00 0.00 1016.4
20260502113548 -17 0.0 0.0 0.00 0.00 0.00 1016.4
20260502113050 -17 0.0 0.0 0.00 0.00 0.00 1016.3
20260502112544 -17 0.0 0.0 0.00 0.00 0.00 1016.1
20260502111958 -17 0.0 0.0 0.00 0.00 0.00 1016.1
20260502111452 -17 0.0 0.0 0.00 0.00 0.00 1016.0
20260502110928 -17 0.0 0.0 0.00 0.00 0.00 1015.9
20260502110346 -17 0.0 0.0 0.00 0.00 0.00 1015.9
20260502105751 -17 0.0 0.0 0.00 0.00 0.00 1015.9
20260502105251 -17 0.0 0.0 0.00 0.00 0.00 1015.9
20260502104154 -17 0.0 0.0 0.00 0.00 0.00 1015.9
20260502103649 9 5 0.0 0.0 0.00 0.00 0.00 66 1015.9
20260502102121 9 5 0.0 0.0 0.00 0.00 0.00 66 1015.7
20260502101103 9 292 0.0 0.0 0.00 0.00 0.00 65 1015.6
20260502100558 9 25 0.0 0.0 0.00 0.00 0.00 65 1015.6
20260502091050 9 359 0.0 0.0 0.00 0.00 0.00 66 1015.8
20260502090539 9 359 0.0 0.0 0.00 0.00 0.00 66 1015.7
20260502071420 11 352 0.0 0.0 0.00 0.00 0.00 56 1015.4
20260502070924 11 352 0.0 0.0 0.00 0.00 0.00 56 1015.7
20260502070419 12 352 0.0 0.0 0.00 0.00 0.00 55 1015.8
20260502064917 12 352 0.0 0.0 0.00 0.00 0.00 53 1016.0
20260502064418 12 352 0.0 0.0 0.00 0.00 0.00 53 1016.0
20260502063914 12 352 0.0 0.0 0.00 0.00 0.00 53 1016.2
20260502062919 12 352 0.0 0.0 0.00 0.00 0.00 52 1016.3
20260502062419 12 0 0.0 1.6 0.00 0.00 0.00 51 1016.3
20260502061921 12 77 0.0 1.6 0.00 0.00 0.00 51 1016.3
20260502061414 12 92 0.0 0.0 0.00 0.00 0.00 50 1016.3
20260502060913 12 311 0.0 0.0 0.00 0.00 0.00 50 1016.4
20260502060417 12 46 0.0 4.8 0.00 0.00 0.00 50 1016.3
20260502055916 13 286 0.0 4.8 0.00 0.00 0.00 50 1016.4
20260502055414 13 199 0.0 6.4 0.00 0.00 0.00 49 1016.2
20260502054916 13 319 0.0 6.4 0.00 0.00 0.00 49 1016.3
20260502054413 13 53 0.0 1.6 0.00 0.00 0.00 48 1016.4
20260502053913 13 47 0.0 12.9 0.00 0.00 0.00 48 1016.3
20260502053412 13 30 0.0 12.9 0.00 0.00 0.00 48 1016.3
20260502052915 13 60 0.0 11.3 0.00 0.00 0.00 48 1016.2
20260502052414 13 34 0.0 6.4 0.00 0.00 0.00 48 1016.1
20260502051913 13 3 0.0 6.4 0.00 0.00 0.00 48 1016.0
20260502051409 13 89 3.2 12.9 0.00 0.00 0.00 48 1015.9
20260502050909 13 34 3.2 12.9 0.00 0.00 0.00 47 1015.8
20260502050409 13 22 1.6 12.9 0.00 0.00 0.00 47 1015.7
20260502045409 13 12 0.0 4.8 0.00 0.00 0.00 46 1015.6
20260502044908 13 46 1.6 17.7 0.00 0.00 0.00 47 1015.6
20260502044411 13 357 1.6 17.7 0.00 0.00 0.00 46 1015.6
20260502043912 13 34 0.0 6.4 0.00 0.00 0.00 46 1015.5
20260502043408 13 50 0.0 12.9 0.00 0.00 0.00 46 1015.5
20260502042909 13 17 0.0 12.9 0.00 0.00 0.00 46 1015.4
20260502042412 13 49 0.0 3.2 0.00 0.00 0.00 45 1015.3
20260502041910 13 335 0.0 1.6 0.00 0.00 0.00 45 1015.4
20260502041413 13 330 0.0 16.1 0.00 0.00 0.00 46 1015.4
20260502040909 13 17 0.0 16.1 0.00 0.00 0.00 46 1015.3
20260502040413 13 39 0.0 0.0 0.00 0.00 0.00 47 1015.2
20260502035905 13 50 0.0 4.8 0.00 0.00 0.00 47 1015.2
20260502035408 13 41 1.6 17.7 0.00 0.00 0.00 47 1015.4
20260502034904 13 355 1.6 17.7 0.00 0.00 0.00 47 1015.1
20260502034405 13 15 0.0 14.5 0.00 0.00 0.00 48 1015.1
20260502033904 13 330 0.0 12.9 0.00 0.00 0.00 47 1015.0
20260502033407 13 26 1.6 8.0 0.00 0.00 0.00 47 1015.0
20260502032906 13 32 1.6 8.0 0.00 0.00 0.00 48 1014.9
20260502032406 13 25 1.6 11.3 0.00 0.00 0.00 48 1015.0
20260502031900 14 34 3.2 11.3 0.00 0.00 0.00 49 1014.9
20260502031400 14 58 1.6 11.3 0.00 0.00 0.00 49 1015.1
20260502030901 14 314 0.0 11.3 0.00 0.00 0.00 49 1015.2
20260502030358 14 39 1.6 8.0 0.00 0.00 0.00 49 1015.3
20260502025858 14 343 3.2 17.7 0.00 0.00 0.00 49 1015.4
20260502025400 14 334 1.6 17.7 0.00 0.00 0.00 49 1015.5
20260502024857 14 296 0.0 3.2 0.00 0.00 0.00 50 1015.5
20260502024359 14 15 0.0 3.2 0.00 0.00 0.00 50 1015.7
20260502023858 14 295 0.0 4.8 0.00 0.00 0.00 50 1015.6
20260502023354 14 69 0.0 8.0 0.00 0.00 0.00 50 1015.6
20260502022853 14 314 1.6 8.0 0.00 0.00 0.00 51 1015.6
20260502022357 14 338 1.6 6.4 0.00 0.00 0.00 51 1015.5
20260502021853 14 9 1.6 11.3 0.00 0.00 0.00 52 1015.5
20260502021355 15 13 3.2 12.9 0.00 0.00 0.00 52 1015.4
20260502020855 15 321 1.6 12.9 0.00 0.00 0.00 52 1015.3
20260502015850 15 358 0.0 6.4 0.00 0.00 0.00 52 1015.1
20260502015351 15 344 0.0 0.0 0.00 0.00 0.00 53 1015.1
20260502014850 15 30 0.0 0.0 0.00 0.00 0.00 54 1015.0
20260502014353 15 342 0.0 0.0 0.00 0.00 0.00 54 1014.8
20260502013851 15 354 0.0 0.0 0.00 0.00 0.00 54 1014.7
20260502013352 15 7 0.0 1.6 0.00 0.00 0.00 54 1014.6
20260502012848 15 344 0.0 1.6 0.00 0.00 0.00 54 1014.5
20260502012352 15 306 0.0 1.6 0.00 0.00 0.00 55 1014.5
20260502011851 15 282 0.0 1.6 0.00 0.00 0.00 56 1014.5
20260502011348 15 326 0.0 0.0 0.00 0.00 0.00 56 1014.5
20260502010850 16 11 0.0 0.0 0.00 0.00 0.00 57 1014.5
20260502005853 16 306 0.0 1.6 0.00 0.00 0.00 56 1014.4
20260502004851 16 21 0.0 0.0 0.00 0.00 0.00 57 1014.3
20260502003847 16 324 1.6 11.3 0.00 0.00 0.00 57 1014.1
20260502003344 16 302 1.6 11.3 0.00 0.00 0.00 56 1014.0
20260502002847 16 319 0.0 0.0 0.00 0.00 0.00 56 1013.9
20260502002345 16 317 0.0 3.2 0.00 0.00 0.00 56 1013.9
20260502001844 17 51 0.0 8.0 0.00 0.00 0.00 55 1013.7
20260502001346 17 310 0.0 8.0 0.00 0.00 0.00 55 1013.7
20260502000844 17 318 0.0 0.0 0.00 0.00 0.00 55 1013.6
20260502000347 17 325 0.0 0.0 0.00 0.00 0.00 54 1013.4
20260501235844 17 312 0.0 0.0 0.00 0.00 0.00 54 1013.3
20260501235340 17 321 0.0 0.0 0.00 0.00 0.00 52 1013.3
20260501234840 17 334 0.0 0.0 0.00 0.00 0.00 51 1013.2
20260501234342 18 300 0.0 0.0 0.00 0.00 0.00 51 1013.1
20260501233843 18 317 0.0 0.0 0.00 0.00 0.00 50 1013.0
20260501233341 18 9 0.0 0.0 0.00 0.00 0.00 49 1013.0
20260501232843 18 269 0.0 0.0 0.00 0.00 0.00 49 1013.0
20260501232341 18 309 0.0 6.4 0.00 0.00 0.00 49 1013.0
20260501231342 18 343 0.0 0.0 0.00 0.00 0.00 49 1012.6
20260501230839 18 8 0.0 0.0 0.00 0.00 0.00 49 1012.4
20260501230337 18 325 0.0 0.0 0.00 0.00 0.00 48 1012.5
20260501225838 18 349 0.0 0.0 0.00 0.00 0.00 47 1012.4
20260501225340 18 333 0.0 0.0 0.00 0.00 0.00 48 1012.6
20260501224837 18 276 0.0 0.0 0.00 0.00 0.00 47 1012.6
20260501224337 18 309 0.0 0.0 0.00 0.00 0.00 47 1012.6
20260501223339 18 296 1.6 9.7 0.00 0.00 0.00 47 1012.7
20260501222838 18 1 4.8 11.3 0.00 0.00 0.00 47 1012.8
20260501222337 18 307 4.8 11.3 0.00 0.00 0.00 48 1012.7
20260501221844 19 285 1.6 9.7 0.00 0.00 0.00 48 1012.6
20260501221336 19 314 3.2 11.3 0.00 0.00 0.00 50 1012.5
20260501220838 18 297 4.8 11.3 0.00 0.00 0.00 49 1012.3
20260501220338 18 241 3.2 9.7 0.00 0.00 0.00 49 1012.2
20260501215838 18 359 1.6 9.7 0.00 0.00 0.00 49 1012.1
20260501215333 18 323 1.6 11.3 0.00 0.00 0.00 47 1012.0
20260501214834 18 284 3.2 14.5 0.00 0.00 0.00 48 1012.0
20260501214336 19 288 3.2 14.5 0.00 0.00 0.00 49 1012.1
20260501213835 19 321 1.6 11.3 0.00 0.00 0.00 48 1012.1
20260501212835 19 41 1.6 9.7 0.00 0.00 0.00 50 1012.0
20260501211833 20 349 0.0 11.3 0.00 0.00 0.00 50 1012.1
20260501211333 20 29 0.0 0.0 0.00 0.00 0.00 49 1012.1
20260501210830 20 86 0.0 6.4 0.00 0.00 0.00 50 1012.2